Miscellaneous Local Product
Issued by NWS Hastings, NE

Home | Current Version | Previous Version | Graphics & Text | Print | Product List | Glossary On
Versions: 1 2 3 4 5 6 7 8 9 10 11 12 13 14 15 16 17 18 19 20 21 22 23 24 25 26 27 28 29 30 31 32 33 34 35 36 37 38 39 40 41 42 43 44 45 46 47 48 49 50
000
AXUS43 KGID 232202
MISGRI

GID CWA HOURLY WEATHER ROUNDUP
NATIONAL WEATHER SERVICE HASTINGS NE
500 PM CDT MON MAY 23 2016

NOTE: "FAIR" INDICATES FEW OR NO CLOUDS BELOW 12,000 FEET WITH NO
SIGNIFICANT WEATHER AND/OR OBSTRUCTIONS TO VISIBILITY.

...SOUTH CENTRAL NEBRASKA...

CITY           SKY/WX    TMP DP  RH WIND       PRES   REMARKS
GRAND ISLAND   CLOUDY    74  66  76 S9        29.76F
HASTINGS       PTSUNNY   71  65  81 S3        29.76F
KEARNEY        PTSUNNY   75  59  57 SW7       29.76F
ORD            PTSUNNY   76  55  48 S6        29.75S
YORK           CLOUDY    77  63  61 S13       29.77F
AURORA         CLOUDY    75  59  58 S7        29.77F
LEXINGTON      SUNNY     77  52  41 CALM      29.77F
HOLDREGE       CLOUDY    75  56  51 SW5       29.76F
HEBRON         CLOUDY    76  62  62 S14       29.79R

...NEBRASKA PANHANDLE...

CITY           SKY/WX    TMP DP  RH WIND       PRES   REMARKS
CHADRON        SUNNY     74  30  19 W15       29.76F
ALLIANCE       CLOUDY    69  30  23 W18G25    29.80R
SCOTTSBLUFF    LGT RAIN  60  40  47 S18G25    29.84F
SIDNEY         SUNNY     71  33  24 S15G22    29.85S

...WESTERN AND NORTH CENTRAL NEBRASKA...

CITY           SKY/WX    TMP DP  RH WIND       PRES   REMARKS
VALENTINE      SUNNY     78  29  16 SW15      29.73F
AINSWORTH      SUNNY     77  36  22 SW16      29.75S
ONEILL         SUNNY     79  48  34 SW10      29.75R
BROKEN BOW     MOSUNNY   78  44  29 SW8       29.77S
IMPERIAL       SUNNY     74  34  23 S5        29.81F
NORTH PLATTE   SUNNY     77  39  25 W3        29.78F
MCCOOK         SUNNY     79  50  36 NE6       29.77F

...EASTERN NEBRASKA...

CITY           SKY/WX    TMP DP  RH WIND       PRES   REMARKS
NORFOLK        CLOUDY    75  61  61 SW14      29.75S
SO SIOUX CITY  TSTM      71  65  81 S20G25    29.76R
TEKAMAH        CLOUDY    74  61  63 SE26G32   29.77F
COLUMBUS       CLOUDY    75  57  53 S13G20    29.77S
ALBION         CLOUDY    77  57  50 S9        29.76S
OMAHA EPPLEY   LGT RAIN  70  63  78 SE20      29.79F
OFFUTT AFB     CLOUDY    72  63  73 SE17G25   29.80S
MILLARD        CLOUDY    70  64  82 SE22G29   29.79R
LINCOLN        LGT RAIN  74  67  78 S13       29.77S
NEBRASKA CITY  CLOUDY    73  61  67 S20G26    29.82S
BEATRICE       CLOUDY    74  62  64 S13       29.80S
FALLS CITY     PTSUNNY   71  62  73 SE15      29.82F

...NORTHERN KANSAS...

CITY           SKY/WX    TMP DP  RH WIND       PRES   REMARKS
GOODLAND       SUNNY     76  43  30 E9        29.81F
HILL CITY      SUNNY     80  60  50 S9        29.75F
NORTON         PTCLDY    77  55  47 CALM      29.76F
PHILLIPSBURG   CLOUDY    79  63  57 SE9       29.74F
SMITH CENTER   MOSUNNY   75  64  69 S14       29.75F
BELOIT         MOSUNNY   75  63  64 SE14      29.75F
HAYS           MOSUNNY   79  61  53 S16       29.75F
RUSSELL        MOSUNNY   79  62  56 S18G24    29.74F
CONCORDIA      CLOUDY    72  62  71 S12       29.78S
SALINA         MOSUNNY   79  63  57 S20G31    29.78R
TOPEKA         CLOUDY    71  63  75 E7        29.82F



USA.gov is the U.S. government's official web portal to all federal, state and local government web resources and services.